Flight Track Log - Related Links

Times and Time Zones

All times are in EST time to prevent confusion due to time zone crossing. See the EJA941 flight status page for this flight to view local times or setup timezone preferences in your user account.

Time Position Orientation Groundspeed Altitude Reporting Facility
EST Latitude Longitude Course Direction KTS MPH feet Rate Location/Type
Thu 07:19:24 PM 32.4478 -115.2681 301° West 437 503 43,000  Level Los Angeles Center
Thu 07:20:27 PM 32.5097 -115.3914 301° West 437 503 43,000  Level Los Angeles Center
Thu 07:21:29 PM 32.5742 -115.5133 302° West 438 504 43,000  Level Los Angeles Center
Thu 07:22:31 PM 32.6414 -115.6344 303° West 441 507 43,000  Level Los Angeles Center
Thu 07:23:33 PM 32.7061 -115.7575 302° West 442 509 43,000 -1,065 Level Los Angeles Center
Thu 07:24:35 PM 32.7819 -115.8994 302° West 424 488 40,800 -2,565 Descending Los Angeles Center
Thu 07:25:37 PM 32.8489 -116.0244 303° West 450 518 37,700 -3,145 Descending Los Angeles Center
Thu 07:26:39 PM 32.9208 -116.1597 302° West 478 550 34,300 -3,484 Descending Los Angeles Center
Thu 07:27:41 PM 33.0036 -116.3222 301° West 517 595 30,500 -3,648 Descending Los Angeles Center
Thu 07:28:44 PM 33.0858 -116.4769 302° West 528 608 26,700 -3,216 Descending Los Angeles Center
Thu 07:29:46 PM 33.1419 -116.6264 294° West 503 579 23,800 -3,242 Descending Los Angeles Center
Thu 07:30:48 PM 33.1656 -116.7797 280° West 479 551 20,000 -2,952 Descending Los Angeles Center
Thu 07:31:50 PM 33.1831 -116.9300 278° West 465 535 17,700 -2,371 Descending Los Angeles Center
Thu 07:32:52 PM 33.2042 -117.1022 278° West 445 512 15,100 -2,376 Descending Los Angeles Center
Thu 07:33:31 PM 33.2167 -117.2000 279° West 422 486 13,700 -2,000 Descending Southern California TRACON
Thu 07:34:25 PM 33.2333 -117.3167 280° West 432 497 12,000 -1,400 Descending Southern California TRACON
Thu 07:35:31 PM 33.2500 -117.4667 278° West 404 465 10,900 -952 Descending Southern California TRACON
Thu 07:36:31 PM 33.2500 -117.6000 270° West 397 457 10,000 -600 Descending Southern California TRACON
Thu 07:37:01 PM 33.2536 -117.6406 276° West 403 464 10,000 -848 Level Los Angeles Center
Thu 07:38:03 PM 33.2950 -117.7222 301° West 329 379 8,700 -1,452 Descending Los Angeles Center
Thu 07:39:05 PM 33.3764 -117.7803 329° Northwest 291 335 7,000 -823 Descending Los Angeles Center
Thu 07:40:07 PM 33.4458 -117.8267 331° Northwest 286 329 7,000  Level Los Angeles Center
Thu 07:41:09 PM 33.5161 -117.8742 331° Northwest 289 333 7,000  Level Los Angeles Center
Thu 07:42:11 PM 33.5847 -117.9203 331° Northwest 286 329 7,000  Level Los Angeles Center
Thu 07:43:13 PM 33.6517 -117.9650 331° Northwest 280 322 7,000  Level Los Angeles Center
Thu 07:44:15 PM 33.7308 -118.0181 331° Northwest 275 316 7,000  Level Los Angeles Center
Thu 07:45:18 PM 33.7928 -118.0567 333° Northwest 259 298 7,000 -96 Level Los Angeles Center
Thu 07:46:20 PM 33.8567 -118.0714 349° North 238 274 6,800 -677 Descending Los Angeles Center
Thu 07:47:22 PM 33.9183 -118.0858 349° North 231 266 5,600 -1,306 Descending Los Angeles Center
Thu 07:48:24 PM 33.9586 -118.1586 304° West 234 269 4,100 -1,403 Descending Los Angeles Center
Thu 07:49:26 PM 33.9539 -118.2250 265° West 211 243 2,700 -1,113 Descending Los Angeles Center
Thu 07:50:28 PM 33.9486 -118.2803 263° West 188 216 1,800 -871 Descending Los Angeles Center
Thu 07:51:30 PM 33.9425 -118.3322 262° West 171 197 900 -726 Descending Los Angeles Center
Thu 07:52:32 PM 33.9392 -118.3722 264° West 140 161 300 -581 Descending Los Angeles Center

Login

Don't have an account? Register now (free) for customized features, flight alerts, and more!